Location: Lynch Observatory
(39.9540°N, 75.1861°W)
Time: 07:03:43
(UTC-04:00)

Hubble Space Telescope - Visible Passes

Search period start: 09 August 2022 00:00
Search period end: 19 August 2022 00:00
Orbit: 532 x 535 km, 28.5° (Epoch: 08 August)

Date Brightness Start Highest point End Pass type
(mag) Time Alt. Az. Time Alt. Az. Time Alt. Az.
09 Aug 2.7 21:45:20 10° SW 21:47:20 16° SSW 21:47:20 16° SSW visible
10 Aug 2.7 21:33:17 10° SW 21:35:46 15° S 21:35:54 15° S visible
11 Aug 2.7 21:21:17 10° SW 21:23:36 15° S 21:24:25 14° S visible
12 Aug 2.9 21:09:22 10° SW 21:11:27 14° S 21:12:54 12° SSE visible
13 Aug 3.0 20:57:33 10° SW 20:59:17 12° SSW 21:01:00 10° SSE visible
14 Aug 3.1 20:45:58 10° SSW 20:47:06 11° SSW 20:48:14 10° S visible
